Location: Aula-Vintri
(58.3875°N, 22.4322°E)
Time: 20:38:34
(UTC+00:00)

Cosmos 2100 Rocket - Pass Details

Date: 13 October 2019
Orbit: 955 x 1002 km, 82.9° (Epoch: 17 November)

Event Time Altitude Azimuth Distance (km) Brightness Sun altitude
Rises 17:43:46 0° 347° (NNW) 3,700 7.4 -18.0°
Reaches altitude 10° 17:46:21 10° 350° (N) 2,741 6.7 -18.3°
Maximum altitude 17:52:36 65° 73° (ENE) 1,061 3.9 -19.1°
Enters shadow 17:56:31 23° 149° (SSE) 1,909 5.1 -19.6°
